Location: Bruderhein
(53.8035°N, 112.9265°W)
Time: 17:52:37
(UTC+00:00)

FO-29 - Visible Passes

Search period start: 28 March 2023 00:00
Search period end: 07 April 2023 00:00
Orbit: 801 x 1320 km, 98.5° (Epoch: 28 March)

Date Brightness Start Highest point End Pass type
(mag) Time Alt. Az. Time Alt. Az. Time Alt. Az.
28 Mar 12.1 11:14:13 10° NNE 11:20:32 26° E 11:26:26 10° SE visible
29 Mar 12.7 10:21:28 10° NE 10:24:09 12° ENE 10:26:45 10° E visible
29 Mar 11.1 12:03:45 10° NNE 12:11:16 49° E 12:18:09 10° S visible
30 Mar 12.2 11:09:21 10° NNE 11:15:25 25° E 11:21:05 10° SE visible
31 Mar 12.8 10:17:10 10° ENE 10:18:59 11° ENE 10:20:45 10° E visible
31 Mar 11.1 11:58:49 10° NNE 12:06:12 47° E 12:12:56 10° SSE visible
01 Apr 12.3 11:04:29 10° NNE 11:10:17 23° E 11:15:42 10° SE visible
02 Apr 11.2 11:53:52 10° NNE 12:01:07 44° E 12:07:40 10° SSE visible
03 Apr 12.3 10:59:38 10° NE 11:05:09 21° E 11:10:17 10° SE visible
04 Apr 11.3 11:48:56 10° NNE 11:56:01 41° E 12:02:24 10° SSE visible
05 Apr 12.3 10:54:48 10° NE 11:00:00 20° E 11:04:50 10° SE visible
06 Apr 11.4 11:44:01 10° NNE 11:50:55 39° E 11:57:06 10° SSE visible
